Temperature
13 13 13 13 13 13 13 13 13 12 12 13 12 13 13 13 13 13 13 13 13 13 13 13 13 13 13 13 12 12 12 12 12 12 12 12 12 12 12 12 12 12 12
13 12 12 12 12 12 12 12 12 12 12 12 12 12 12 12 12 13 13 13 13 13 13 13 13 12 12 12 12 12 12 12 12 12 12 12 12 12 12 12 11 11 11
12 12 12 12 12 12 12 12 12 12 12 12 12 12 12 12 12 12 12 12 12 12 12 12 12 12 12 12 12 12 12 12 12 12 12 12 12 11 11 11 11 11 11
12 12 12 12 12 12 12 12 12 12 12 12 12 12 12 12 12 12 12 12 12 12 12 12 12 12 12 12 12 12 12 12 12 12 11 11 11 11 11 11 11 11 11
11 12 12 12 12 12 12 12 11 12 12 11 11 11 12 12 12 12 12 12 12 12 12 12 12 12 12 11 11 11 11 11 11 11 11 11 11 11 11 11 11 11 10
11 11 11 11 12 12 12 11 11 11 11 11 11 11 11 11 11 11 11 11 11 11 11 11 11 11 11 11 11 11 11 11 11 11 11 11 11 11 11 10 10 10 10
11 11 11 11 11 11 11 11 11 11 11 11 11 11 11 11 11 11 11 11 11 11 11 11 11 11 11 11 11 11 11 11 11 10 10 10 10 10 10 10 10 10 10
11 11 11 11 11 11 11 11 11 11 11 11 11 10 10 10 10 10 10 11 10 10 10 10 10 10 10 11 11 11 11 10 10 10 10 10 10 10 10 10 10 10 9
11 10 11 11 11 11 11 11 11 11 11 10 10 10 10 10 10 10 10 10 10 10 10 10 10 10 10 10 10 10 10 10 10 10 10 9 9 9 9 9 9 9 9
10 10 10 10 10 10 10 10 11 10 11 10 10 10 10 10 10 9 9 10 10 10 10 10 10 10 10 10 10 10 10 10 9 9 9 9 9 9 9 9 9 9 9
9 9 10 10 10 10 10 10 10 10 10 10 10 10 10 10 10 10 9 9 9 9 9 9 9 9 9 10 10 9 9 9 9 9 9 9 9 9 9 9 9 9 9
9 9 9 9 10 10 10 10 10 10 10 10 10 10 10 10 10 10 9 9 9 9 9 9 9 9 9 9 9 9 9 9 9 9 9 8 8 8 8 8 8 8 8
8 8 9 9 9 9 9 9 10 10 10 10 10 10 9 9 9 9 9 9 8 8 8 8 9 9 9 9 9 9 9 9 9 8 8 8 8 8 8 8 8 8 8
8 8 8 9 9 9 9 9 9 9 9 9 9 9 9 9 9 9 9 9 8 8 8 8 8 8 8 8 8 8 8 8 8 8 8 8 8 8 8 8 8 8 8
8 8 8 8 8 8 9 9 9 9 9 9 9 9 9 9 9 9 9 9 8 8 7 7 8 8 8 8 8 8 8 8 8 8 8 8 8 8 8 7 7 7 7
7 8 8 8 8 8 8 8 8 8 8 8 8 8 8 8 8 8 8 8 8 8 7 7 7 7 7 7 7 7 7 7 7 7 7 7 7 7 7 7 7 7 7
7 7 7 8 8 8 8 8 8 8 8 8 8 8 8 8 8 8 8 8 7 7 7 7 7 7 7 7 7 7 7 7 7 7 7 7 7 7 7 7 7 6 6
7 7 7 7 7 8 8 8 8 8 8 8 8 8 7 7 7 7 7 7 7 7 7 7 7 6 6 6 6 6 6 6 6 7 6 6 6 6 6 6 6 6 6
6 6 7 7 7 7 7 7 7 7 7 7 7 7 7 7 7 7 7 7 7 7 7 6 6 6 6 6 6 6 6 6 6 6 6 6 6 6 6 6 6 6 5
5 6 6 6 6 7 7 7 7 7 7 7 7 7 6 6 6 7 7 7 6 6 6 6 6 6 5 5 5 5 5 5 5 5 5 5 5 5 5 5 5 5 5
5 5 5 6 6 6 6 6 6 6 6 6 6 6 6 6 6 6 6 6 6 6 6 5 5 5 5 5 5 5 5 5 4 4 5 4 5 5 5 5 4 4 4
4 5 5 5 5 6 6 6 6 6 6 6 6 5 5 6 6 5 5 5 5 5 5 5 5 5 5 5 4 4 4 4 4 4 4 4 4 4 4 4 4 4 4
4 4 4 5 5 5 5 5 5 5 5 5 5 5 5 5 5 5 5 5 5 4 4 4 4 4 4 4 4 4 4 4 4 4 3 4 4 4 4 3 3 3 3
3 3 4 4 4 4 4 4 4 4 4 5 5 5 5 4 4 4 4 4 4 4 4 4 4 4 4 4 4 4 3 3 3 3 3 3 3 3 3 3 3 3 2
2 3 3 3 3 3 4 4 4 4 4 4 4 4 4 4 4 4 4 4 4 3 3 3 3 3 3 3 3 3 3 3 2 3 2 2 2 3 3 3 2 2 2
2 2 2 2 2 3 3 3 3 3 3 3 3 3 3 3 3 3 3 3 3 3 3 3 3 3 3 2 2 2 2 2 2 2 2 2 2 2 2 2 2 2 1
Wind_Speed
5 6 7 8 8 8 7 5 5 5 5 6 7 7 8 8 10 10 10 10 9 9 9 10 10 10 10 10 10 9 9 9 8 9 9 9 9 9 9 10 9 10 9
6 5 5 5 6 7 6 6 6 5 5 6 6 6 7 8 9 10 10 9 9 9 9 9 9 9 9 9 9 9 8 8 8 8 8 8 8 9 9 9 9 9 9
7 6 5 4 5 7 7 6 6 6 5 5 4 6 7 7 8 9 9 8 8 8 9 9 9 9 8 8 8 8 8 7 7 7 7 7 7 7 8 8 8 8 8
8 7 5 4 6 7 6 4 4 4 4 4 4 4 6 7 7 8 9 8 8 8 8 8 8 8 8 7 7 7 7 7 7 6 6 7 7 7 7 7 8 8 8
8 7 5 5 7 6 5 4 4 4 4 4 4 4 4 5 5 7 7 8 9 9 8 8 8 7 7 6 6 6 6 7 7 6 6 6 6 6 7 7 7 7 7
8 8 5 6 7 4 3 3 5 5 5 5 5 5 4 4 5 5 5 7 8 8 8 7 7 6 6 6 6 6 6 6 6 6 6 6 5 6 6 6 6 6 6
7 7 5 5 5 4 4 5 5 7 4 4 4 3 3 3 3 3 4 5 6 7 7 7 6 6 5 5 5 5 5 5 5 5 5 5 5 5 5 5 5 6 6
7 7 5 4 4 4 4 4 5 4 3 3 3 3 2 1 2 2 3 3 4 5 5 5 6 6 6 6 5 5 5 4 4 4 4 4 4 5 5 5 6 6 6
7 7 6 5 5 4 4 4 4 5 5 2 2 3 3 3 1 1 1 2 2 2 3 4 6 6 6 6 6 5 4 4 3 3 2 3 3 3 4 4 5 5 6
6 7 6 6 5 4 5 4 4 3 5 4 1 1 2 3 3 2 0 1 1 2 2 3 5 5 5 6 5 5 4 4 4 3 2 2 2 2 2 3 3 4 5
5 6 7 6 4 4 4 4 4 3 3 4 3 2 1 2 2 3 2 1 0 0 1 3 4 4 5 5 5 4 4 3 3 3 2 2 2 1 2 2 3 3 3
3 4 6 5 5 4 4 4 4 4 3 3 3 3 3 2 2 2 2 2 2 1 1 2 3 3 4 5 5 4 3 3 2 2 2 2 2 2 2 2 3 3 3
3 4 4 4 4 4 5 5 4 4 3 3 3 3 2 2 2 2 2 1 1 1 1 1 2 3 3 3 4 4 3 2 2 2 1 2 2 3 2 2 2 2 3
4 4 4 4 5 6 5 5 3 3 3 3 3 3 2 2 2 2 3 3 1 0 0 1 0 3 3 3 3 3 4 3 2 2 1 2 3 3 3 2 2 2 3
4 5 5 4 4 5 5 4 3 4 3 3 3 3 2 2 2 2 2 3 4 2 2 2 1 2 3 3 2 3 3 3 3 2 2 3 3 3 3 2 2 2 2
5 5 5 5 5 5 5 4 4 4 4 3 3 4 3 2 3 2 2 2 2 3 3 1 1 1 3 3 2 2 2 3 3 2 2 3 3 2 2 2 1 2 2
6 6 6 6 6 6 5 5 5 5 5 4 4 4 4 3 3 3 3 2 2 3 3 1 0 1 2 3 2 1 1 1 1 1 2 2 2 2 2 1 1 1 2
5 6 6 6 6 6 6 6 6 6 5 5 5 5 4 4 4 3 3 3 3 3 3 3 1 1 1 3 3 2 1 1 1 1 1 1 1 0 1 0 0 1 2
4 4 5 6 6 6 6 6 6 6 6 6 5 5 5 5 4 3 4 3 3 3 3 4 2 1 1 1 2 1 1 0 0 1 1 1 1 1 1 1 2 2 3
4 4 5 5 5 5 5 5 6 6 6 5 5 5 5 5 5 5 4 4 3 3 3 3 3 2 1 1 2 1 1 0 0 1 2 2 2 2 2 2 3 4 4
4 4 4 4 4 4 5 6 6 6 5 5 4 4 4 5 5 5 4 4 4 4 4 4 3 2 2 2 3 2 2 1 1 1 1 2 2 2 3 3 4 4 5
3 4 4 5 4 4 5 7 6 5 5 5 5 4 3 5 5 5 5 5 5 5 5 4 4 4 4 4 3 3 2 1 2 1 0 2 1 2 3 4 5 5 5
3 3 3 4 4 4 6 7 7 5 5 5 5 5 3 3 5 4 4 4 3 3 5 5 5 4 4 4 5 4 3 2 2 2 0 2 2 3 4 5 6 6 6
2 3 3 3 3 4 5 6 6 5 4 4 4 5 5 4 4 6 5 4 2 1 2 3 3 3 3 3 4 4 4 2 1 1 1 2 2 2 3 5 6 6 7
2 3 3 4 4 3 5 6 6 4 4 3 3 4 5 5 7 8 6 5 4 2 3 5 5 4 4 4 4 3 2 2 1 1 1 1 1 2 3 3 5 6 7
2 3 3 3 3 4 5 6 5 4 4 3 3 3 4 6 7 8 6 6 6 4 3 3 3 3 3 3 4 3 3 3 1 1 1 1 1 1 2 2 3 5 6
Wind_Direction
138 137 141 147 148 152 153 150 129 117 105 101 101 97 99 98 101 103 106 104 105 106 104 100 98 94 92 90 87 85 84 83 82 81 78 76 76 75 74 70 67 66 67
137 140 133 135 137 144 145 136 124 113 101 99 96 95 100 104 106 107 110 105 103 104 104 100 96 94 92 90 87 83 82 81 82 82 81 79 77 75 73 69 66 64 63
139 136 129 127 134 137 132 122 115 107 103 99 95 87 86 89 101 111 114 112 106 99 101 98 95 94 93 90 87 83 79 80 83 83 84 84 81 77 71 69 66 63 61
141 131 127 129 135 132 126 119 115 106 102 90 83 77 77 78 80 98 103 108 113 110 101 97 94 93 92 92 87 82 79 79 79 83 88 89 86 80 73 70 67 64 62
148 134 132 134 132 129 131 133 122 119 113 102 93 81 75 77 78 88 93 98 106 113 110 101 96 93 87 88 88 85 83 83 79 78 86 93 88 82 76 71 68 64 62
150 136 134 138 134 126 135 136 130 117 113 110 96 80 67 75 75 77 87 98 102 103 108 112 105 95 85 85 88 84 83 81 79 81 83 93 91 87 79 71 65 63 63
151 142 140 139 134 135 146 141 130 126 121 119 104 88 55 59 77 79 77 87 96 104 106 111 115 110 96 89 88 85 81 85 82 83 80 87 91 89 82 72 66 65 61
151 148 143 144 140 137 132 133 132 133 140 145 137 132 124 51 35 57 69 78 82 97 104 106 106 110 109 102 89 84 81 83 83 83 83 83 88 88 81 73 69 69 62
155 155 152 147 147 143 145 145 145 145 157 171 137 138 145 171 146 47 76 86 90 81 82 96 92 91 99 102 99 89 83 72 64 66 74 84 87 88 79 71 67 63 57
156 157 156 153 149 146 148 154 146 149 153 162 159 92 113 125 136 142 360 55 96 94 88 88 91 88 98 107 104 95 87 74 59 47 55 81 77 84 82 76 64 55 52
158 160 159 156 153 155 152 150 145 152 158 159 157 142 111 85 105 135 171 196 350 40 93 95 95 89 90 102 109 100 97 82 60 46 57 54 42 49 69 66 55 47 44
161 160 159 157 160 159 159 154 157 168 171 164 156 149 147 146 165 148 168 180 186 223 91 102 104 106 100 92 91 96 102 95 69 48 40 34 27 33 51 53 45 37 28
170 173 167 164 160 161 162 157 155 167 170 168 168 165 160 158 145 137 136 157 159 195 149 101 128 129 116 103 90 77 82 82 64 48 32 30 37 43 54 44 39 32 21
176 172 170 167 164 160 159 158 153 164 161 168 170 162 147 147 130 139 147 147 145 270 215 220 129 132 122 104 90 75 68 65 60 33 30 51 57 59 57 45 47 35 17
166 165 168 167 168 164 161 157 160 169 166 171 172 166 160 158 149 153 150 156 158 188 231 222 161 121 127 108 89 84 71 63 59 52 58 60 67 71 69 48 43 27 7
167 168 173 173 173 170 166 162 163 169 170 175 169 171 176 173 167 162 167 174 166 175 205 212 161 142 130 117 98 91 76 58 51 57 68 69 67 65 65 63 44 14 359
175 176 177 177 179 177 172 169 173 171 176 179 178 178 187 176 173 176 175 179 178 164 189 227 127 125 131 132 120 105 47 69 50 47 63 64 59 63 83 91 72 0 346
184 183 179 180 181 178 176 174 178 178 181 185 187 185 192 178 175 177 180 187 187 179 178 189 201 185 167 156 143 122 97 88 105 42 30 37 35 66 122 113 353 329 321
189 188 181 185 186 184 184 183 182 182 184 188 187 187 189 178 187 185 185 191 190 178 168 173 186 189 178 151 131 117 115 92 243 298 322 310 297 283 273 271 289 305 308
193 196 190 187 187 187 187 187 184 184 182 183 185 186 187 185 189 188 190 190 180 170 160 164 174 186 184 168 152 177 192 231 273 293 279 267 268 278 277 279 287 297 300
200 198 192 186 185 187 190 187 184 184 180 178 180 185 184 175 174 180 184 183 178 175 167 170 177 179 185 176 195 194 197 206 283 267 271 263 253 259 270 272 279 287 295
195 189 189 184 184 195 190 189 187 181 176 176 179 177 172 174 173 169 166 170 178 183 183 182 189 194 197 193 182 178 171 182 255 273 318 286 252 242 249 258 274 286 293
190 186 182 177 181 188 188 188 188 181 174 177 178 174 176 173 159 154 151 141 142 168 184 184 189 200 194 194 180 182 190 194 216 227 231 269 275 259 254 267 273 279 286
183 182 176 181 182 187 185 186 176 164 162 171 175 172 171 172 169 158 147 141 142 147 176 165 177 190 181 171 176 182 182 169 178 237 193 243 263 265 270 273 265 271 288
182 177 178 180 181 184 182 175 163 153 153 162 168 168 171 172 170 164 155 154 151 146 132 143 146 152 156 160 161 135 140 149 242 253 228 200 267 293 285 264 258 277 291
180 170 169 168 171 172 173 169 163 152 153 156 151 158 173 175 172 169 166 165 172 176 151 127 118 116 129 133 145 156 169 178 193 235 241 174 253 336 301 282 268 283 292
Height
1548 1551 1553 1555 1557 1560 1562 1564 1566 1568 1569 1571 1573 1574 1575 1576 1577 1578 1579 1580 1580 1581 1582 1582 1582 1583 1583 1583 1583 1583 1583 1583 1582 1582 1582 1581 1581 1581 1580 1580 1580 1579 1579
1547 1550 1552 1554 1557 1559 1562 1564 1566 1567 1569 1570 1572 1574 1575 1576 1577 1578 1579 1580 1581 1582 1582 1583 1583 1583 1583 1584 1584 1584 1583 1583 1583 1583 1582 1582 1582 1581 1581 1581 1580 1580 1579
1546 1549 1551 1553 1556 1558 1561 1563 1565 1567 1568 1570 1572 1574 1575 1576 1578 1578 1579 1580 1581 1582 1582 1583 1583 1583 1584 1584 1584 1584 1584 1584 1583 1583 1583 1582 1582 1581 1581 1581 1580 1580 1580
1545 1547 1549 1552 1554 1557 1559 1562 1564 1565 1568 1569 1571 1573 1575 1576 1577 1578 1579 1580 1581 1581 1582 1583 1583 1583 1584 1584 1584 1584 1584 1584 1583 1583 1583 1582 1582 1581 1581 1581 1581 1580 1580
1543 1545 1548 1550 1553 1555 1558 1560 1562 1564 1567 1569 1570 1572 1574 1575 1577 1578 1579 1579 1580 1581 1582 1582 1583 1583 1583 1583 1583 1583 1583 1583 1583 1583 1582 1582 1582 1581 1581 1581 1580 1580 1580
1541 1543 1546 1548 1551 1553 1556 1558 1561 1563 1565 1567 1569 1572 1573 1575 1576 1577 1578 1579 1580 1580 1581 1581 1582 1582 1583 1583 1583 1583 1583 1583 1583 1582 1582 1582 1581 1581 1581 1580 1580 1579 1579
1538 1541 1544 1546 1548 1551 1554 1557 1559 1561 1564 1566 1568 1570 1572 1574 1575 1576 1577 1578 1579 1579 1580 1580 1581 1581 1581 1582 1582 1582 1582 1582 1582 1582 1581 1581 1581 1580 1580 1580 1579 1579 1578
1536 1539 1541 1544 1546 1549 1552 1554 1557 1559 1562 1564 1566 1568 1571 1574 1574 1575 1576 1577 1577 1578 1579 1579 1580 1580 1580 1580 1581 1581 1581 1581 1581 1581 1580 1580 1580 1580 1579 1579 1579 1578 1577
1533 1536 1539 1541 1544 1547 1549 1552 1554 1557 1559 1562 1564 1567 1568 1570 1572 1574 1574 1575 1576 1577 1577 1578 1579 1579 1579 1579 1579 1580 1580 1580 1580 1580 1579 1579 1579 1579 1579 1578 1578 1577 1576
1531 1533 1536 1539 1541 1544 1547 1549 1552 1555 1557 1559 1562 1564 1566 1567 1569 1571 1573 1573 1574 1575 1576 1577 1577 1577 1578 1578 1578 1578 1579 1579 1578 1578 1578 1578 1578 1578 1577 1577 1577 1576 1575
1528 1531 1533 1536 1539 1542 1544 1547 1549 1552 1554 1557 1559 1561 1563 1565 1566 1568 1569 1571 1572 1573 1574 1575 1575 1576 1576 1576 1577 1577 1577 1577 1577 1576 1576 1576 1576 1576 1576 1576 1575 1575 1574
1525 1528 1531 1534 1536 1539 1541 1544 1547 1549 1552 1554 1556 1558 1560 1562 1564 1565 1567 1568 1569 1571 1572 1573 1573 1574 1574 1574 1575 1575 1575 1575 1575 1575 1574 1574 1574 1574 1574 1574 1573 1573 1572
1522 1525 1528 1531 1533 1536 1539 1542 1544 1546 1549 1551 1553 1556 1557 1559 1562 1563 1564 1565 1567 1568 1569 1570 1571 1571 1572 1572 1572 1573 1573 1573 1573 1573 1572 1572 1572 1572 1572 1571 1571 1571 1571
1519 1522 1525 1528 1531 1534 1536 1539 1541 1544 1546 1548 1550 1552 1554 1556 1559 1560 1561 1563 1564 1565 1566 1567 1568 1569 1569 1569 1570 1570 1570 1570 1570 1570 1570 1570 1570 1570 1570 1569 1569 1569 1568
1517 1519 1522 1525 1528 1530 1533 1536 1538 1540 1543 1545 1547 1549 1551 1553 1555 1557 1558 1560 1562 1562 1563 1564 1565 1565 1566 1567 1567 1567 1567 1568 1567 1567 1567 1567 1567 1567 1567 1567 1566 1566 1566
1513 1516 1519 1522 1525 1527 1530 1532 1535 1537 1539 1541 1544 1546 1548 1550 1551 1553 1555 1556 1558 1559 1559 1561 1562 1562 1563 1564 1564 1565 1565 1565 1565 1565 1564 1564 1564 1564 1564 1564 1564 1563 1563
1510 1513 1516 1519 1521 1524 1526 1529 1531 1534 1536 1538 1540 1542 1544 1546 1548 1549 1551 1552 1554 1555 1555 1557 1558 1559 1560 1561 1561 1562 1562 1562 1562 1562 1561 1561 1561 1561 1561 1561 1560 1560 1560
1507 1510 1512 1515 1518 1520 1523 1525 1528 1530 1532 1534 1536 1538 1540 1542 1544 1545 1547 1548 1549 1551 1552 1552 1554 1555 1556 1557 1558 1558 1558 1559 1559 1558 1558 1558 1558 1558 1558 1557 1557 1557 1556
1503 1506 1509 1511 1514 1516 1519 1521 1524 1526 1528 1530 1532 1534 1536 1538 1539 1541 1542 1544 1545 1546 1547 1548 1549 1551 1552 1553 1554 1554 1555 1555 1555 1555 1555 1555 1555 1555 1555 1554 1554 1554 1553
1499 1502 1505 1507 1510 1512 1515 1517 1520 1522 1524 1526 1528 1530 1532 1534 1535 1537 1538 1539 1541 1542 1543 1544 1545 1547 1548 1549 1550 1550 1551 1551 1552 1552 1552 1552 1552 1551 1551 1551 1551 1550 1549
1495 1498 1501 1503 1506 1508 1511 1513 1515 1517 1519 1521 1524 1526 1528 1530 1531 1533 1534 1535 1536 1537 1539 1540 1541 1542 1543 1544 1546 1546 1547 1547 1548 1548 1548 1548 1548 1548 1548 1548 1547 1546 1546
1491 1494 1496 1498 1501 1504 1506 1509 1511 1513 1515 1517 1519 1521 1523 1525 1527 1528 1530 1531 1533 1533 1534 1535 1536 1538 1539 1541 1542 1542 1543 1543 1543 1545 1544 1544 1545 1544 1544 1544 1543 1543 1542
1486 1489 1491 1494 1496 1499 1502 1504 1506 1508 1510 1512 1514 1517 1518 1520 1522 1524 1525 1526 1528 1529 1531 1532 1532 1533 1535 1536 1538 1538 1539 1539 1539 1540 1540 1539 1540 1540 1540 1539 1539 1538 1537
1482 1484 1487 1489 1491 1494 1497 1499 1502 1504 1505 1508 1510 1512 1514 1516 1517 1519 1521 1522 1523 1524 1526 1527 1529 1530 1532 1533 1534 1535 1535 1535 1536 1536 1537 1536 1535 1535 1535 1535 1534 1534 1533
1477 1480 1482 1485 1487 1489 1492 1494 1497 1498 1500 1503 1505 1507 1509 1511 1513 1515 1516 1517 1519 1520 1522 1523 1524 1526 1527 1528 1529 1530 1531 1532 1531 1532 1532 1532 1531 1530 1530 1530 1529 1529 1528
1473 1476 1478 1481 1483 1485 1488 1490 1492 1494 1496 1498 1500 1502 1504 1507 1508 1510 1512 1513 1514 1516 1518 1519 1520 1521 1523 1524 1525 1526 1527 1528 1527 1527 1527 1528 1527 1526 1524 1524 1524 1524 1523